Flag for U.S.A. Weather past 2 weeks in Albuquerque, New Mexico, U.S.A.

Now
81 °F

Sunny.


Feels Like: 80 °F
Forecast: 69 / 99 °F
Wind: No wind

Location: Albuquerque International Airport

Current Time: Jul 26, 2014 at 10:21:19 AM

Latest Report: Jul 26, 2014 at 9:52 AM


Visibility: 10 mi

Pressure: 29.91 "Hg

Humidity: 30%

Dew point: 47 °F

Location of AlbuquerqueLocation

Historic Weather in Albuquerque — Graph

°F

Albuquerque temperature yesterday

Maximum temperature yesterday: 96 °F (at 2:52 PM)
Minimum temperature yesterday: 72 °F (at 5:52 AM)
Average temperature yesterday: 84 °F

Past Weeks' High & Low Weather Summary

 TemperatureHumidityPressure
High96 °F (Jul 25, 2:52 PM)87% (Jul 15, 5:52 AM)30.36 "Hg (Jul 15, 5:52 AM)
Low62 °F (Jul 15, 7:52 AM)14% (Jul 18, 5:52 PM)29.73 "Hg (Jul 17, 5:52 PM)
Average78 °F42%29.93 "Hg
* Reported Jul 11 8:52 AM — Jul 26 8:52 AM, Albuquerque, Weather by CustomWeather, © 2014

Note: Actual official high and low records may vary slightly from our data, if they occured in-between our weather recording intervals... More about our weather records

Advertising

Albuquerque weather history for previous 24 hours

 ConditionsComfort  
Time TempWeatherWind HumidityBarometerVisibility
8:52 AM
Jul 26
80 °FPassing clouds.No wind31%29.91 "Hg10 mi
7:52 AM77 °FPassing clouds.6 mph32%29.90 "Hg10 mi
6:52 AM72 °FPassing clouds.10 mph38%29.88 "Hg10 mi
5:52 AM72 °FPassing clouds.5 mph35%29.87 "Hg10 mi
4:52 AM74 °FPassing clouds.3 mph32%29.84 "Hg10 mi
3:52 AM75 °FPassing clouds.6 mph31%29.82 "Hg10 mi
2:52 AM78 °FPassing clouds.6 mph27%29.81 "Hg10 mi
1:52 AM78 °FPassing clouds.7 mph27%29.82 "Hg10 mi
12:52 AM82 °FPassing clouds.7 mph23%29.82 "Hg10 mi
11:52 PM
Jul 25
83 °FPassing clouds.8 mph24%29.82 "Hg10 mi
10:52 PM84 °FPassing clouds.7 mph24%29.82 "Hg10 mi
9:52 PM86 °FPassing clouds.5 mph23%29.80 "Hg10 mi
8:52 PM90 °FPassing clouds.7 mph19%29.78 "Hg10 mi
7:52 PM93 °FPassing clouds.8 mph17%29.76 "Hg10 mi
6:52 PM94 °FPassing clouds.No wind16%29.76 "Hg10 mi
5:52 PM96 °FPassing clouds.14 mph15%29.77 "Hg10 mi
4:52 PM96 °FPassing clouds.9 mph14%29.78 "Hg10 mi
3:52 PM94 °FPassing clouds.3 mph15%29.81 "Hg10 mi
2:52 PM96 °FScattered clouds.5 mph16%29.84 "Hg10 mi
1:52 PM92 °FPassing clouds.3 mph19%29.87 "Hg10 mi
12:52 PM91 °FPassing clouds.3 mph20%29.89 "Hg10 mi
11:52 AM87 °FPassing clouds.No wind21%29.92 "Hg10 mi
10:52 AM85 °FPassing clouds.8 mph23%29.93 "Hg10 mi
Weather by CustomWeather, © 2014

See weather overviewHow to use our weather pages